Simultaneous Nadir Overpasses (SNOs) Predictions

Prediction of SNOs between LANDSAT-8 and METOP-B Satellite Orbit:

Table of predicted SNOs for the next 14.0 days since TLE Epoch: 8/11/2017
Index Date (LANDSAT-8) Time (LANDSAT-8) Lat,Lon (LANDSAT-8) SZA (LANDSAT-8 ) Date (METOP-B) Time (METOP-B) Lat,Lon (METOP-B) SZA (METOP-B ) Distance(km) Time Diff (sec)
1 08/14/2017 10:36:48 -81.20,-117.90 110.91 08/14/2017 10:36:43 -81.20,-117.90 110.91 0.13 5
2 08/14/2017 11:26:13 81.23, 50.20 69.18 08/14/2017 11:27:21 81.23, 50.38 69.23 3.11 68
3 08/17/2017 05:22:01 80.58, 132.58 68.69 08/17/2017 05:20:47 80.80, 131.98 68.80 27.22 74
4 08/17/2017 06:11:04 -81.21, -51.43 110.00 08/17/2017 06:11:03 -81.20, -51.43 110.00 0.11 1
5 08/17/2017 07:00:29 81.23, 116.64 70.08 08/17/2017 07:01:41 81.23, 116.81 70.12 2.78 72
6 08/20/2017 00:55:54 81.18,-153.00 70.86 08/20/2017 00:54:44 81.18,-153.17 70.81 2.97 70
7 08/20/2017 01:45:20 -81.21, 15.02 109.08 08/20/2017 01:45:23 -81.21, 15.03 109.07 0.18 3
8 08/22/2017 20:30:09 81.18, -86.60 71.81 08/22/2017 20:29:03 81.18, -86.76 71.76 2.70 66
9 08/22/2017 21:19:35 -81.21, 81.44 108.12 08/22/2017 21:19:42 -81.21, 81.48 108.11 0.67 7
10 08/25/2017 16:04:24 81.20, -19.87 72.83 08/25/2017 16:03:22 81.19, -19.98 72.79 2.16 62




NCC Satellite Simultaneous Nadir Overpasses (SNOs) Prediction Service
